Regional Weather Roundup
Issued by NWS Portland, ME

Home | Current Version | Previous Version | Text Only | Print | Product List | Glossary On
Versions: 1 2 3 4 5 6 7 8 9 10 11 12 13 14 15 16 17 18 19 20 21 22 23 24 25 26 27 28 29 30 31 32 33 34 35 36 37 38 39 40 41 42 43 44 45 46 47 48 49 50
000
ASUS41 KGYX 221810
RWRGYX
WEATHER ROUNDUP FOR MAINE AND NEW HAMPSHIRE
NATIONAL WEATHER SERVICE GRAY ME
100 PM EST WED NOV 22 2017

MEZ002-005-006-010-012-015-018-020-021-024-026-027-029-221900-
MAINE

CITY           SKY/WX    TMP DP  RH WIND       PRES   REMARKS
PORTLAND       HVY RAIN  41  40  96 W10       29.85F FOG
6HR MIN TEMP:  36; 6HR MAX TEMP:  45; 6HR PCP:  0.19;

SANFORD        RAIN      43  41  93 NW7       29.83F
BAR HARBOR     LGT RAIN  50  49  96 S7        29.87F
WISCASSET      RAIN      51  50  96 CALM      29.85F FOG
6HR MIN TEMP:  38; 6HR MAX TEMP:  51; 6HR PCP:  0.13;

ROCKLAND       RAIN      50  49  96 CALM      29.85F
FRYEBURG       LGT RAIN  34  34 100 CALM      29.85F
6HR MIN TEMP:  27; 6HR MAX TEMP:  34; 6HR PCP:  0.15;

LEWISTONAUBURN RAIN      37  36  93 CALM      29.85F FOG
AUGUSTA        LGT RAIN  39  37  92 N5        29.86F FOG
6HR MIN TEMP:  36; 6HR MAX TEMP:  43; 6HR PCP:  0.10;

WATERVILLE     LGT RAIN  36  35  96 NE5       29.82F
BANGOR         LGT RAIN  44  42  93 N8        29.87F FOG
6HR MIN TEMP:  33; 6HR MAX TEMP:  49; 6HR PCP:  0.08;

GREENVILLE       N/A     35  33  92 E3        29.83F
6HR MIN TEMP:  31; 6HR MAX TEMP:  37;

MILLINOCKET    LGT RAIN  35  34  96 CALM      29.91S FOG
6HR MIN TEMP:  22; 6HR MAX TEMP:  35; 6HR PCP: TRACE;

HOULTON        CLOUDY    43  38  82 VRB5      29.88S
6HR MIN TEMP:  30; 6HR MAX TEMP:  45;

PRESQUE ISLE   CLOUDY    39  35  86 S7        29.89S
6HR MIN TEMP:  23; 6HR MAX TEMP:  39;

FRENCHVILLE    CLOUDY    34  30  85 N3        29.86F
6HR MIN TEMP:  30; 6HR MAX TEMP:  34;

CARIBOU        CLOUDY    38  34  85 N3        29.87S
6HR MIN TEMP:  29; 6HR MAX TEMP:  39;

$$

NHZ002-005-008-009-011-012-014-221900-
NEW HAMPSHIRE

CITY           SKY/WX    TMP DP  RH WIND       PRES   REMARKS
PORTSMOUTH     LGT RAIN  44  43  98 NW10      29.79F FOG
ROCHESTER      RAIN      42  42 100 NW8       29.82F FOG
6HR MIN TEMP:  35; 6HR MAX TEMP:  42; 6HR PCP:  0.20;

NASHUA         LGT RAIN  43  43 100 N6        29.83F
MANCHESTER     LGT RAIN  41  40  96 N8        29.81F FOG
6HR MIN TEMP:  39; 6HR MAX TEMP:  44; 6HR PCP:  0.26;

CONCORD        LGT RAIN  39  36  89 NW3       29.84F FOG
6HR MIN TEMP:  30; 6HR MAX TEMP:  39; 6HR PCP:  0.20;

LACONIA        LGT RAIN  39  37  92 E3        29.83F
PLYMOUTH       MIX PCPN  32  31  96 CALM      29.84F
BERLIN         LGT RAIN  34  31  88 CALM      29.85F
6HR MIN TEMP:  23; 6HR MAX TEMP:  34; 6HR PCP: TRACE;

WHITEFIELD     LGT RAIN  35  32  88 CALM      29.84F
6HR MIN TEMP:  23; 6HR MAX TEMP:  35; 6HR PCP: TRACE;

JAFFREY        RAIN      43  42  97 CALM      29.81F FOG
6HR MIN TEMP:  35; 6HR MAX TEMP:  43; 6HR PCP:  0.14;

KEENE          LGT RAIN  39  38  96 CALM      29.85F FOG
LEBANON        LGT RAIN  37  35  92 N3        29.85F
6HR MIN TEMP:  27; 6HR MAX TEMP:  37; 6HR PCP:  0.05;

MT WASHINGTON  SNOW      25  25 100 W31         N/A  VSB 1/16WCI   8
6HR MIN TEMP:  24; 6HR MAX TEMP:  30; 6HR PCP:  0.14;

$$

VTZ005-007-008-221900-
VERMONT

CITY           SKY/WX    TMP DP  RH WIND       PRES   REMARKS
ST JOHNSBURY     N/A     35  35 100 MISG      29.87F
MONTPELIER     LGT SNOW  33  33 100 NW10      29.92F VSB 1
BURLINGTON     DRIZZLE   36  33  89 NE3       29.96F
$$

MAZ007-012-024-CTZ003-RIZ002-NYZ038-NYZ072-221900-
SOUTHERN NEW ENGLAND AND NY

CITY           SKY/WX    TMP DP  RH WIND       PRES   REMARKS
BOSTON         LGT RAIN  51  51 100 SE8       29.79F FOG
WORCESTER      LGT RAIN  45  40  82 NW15      29.80F
NANTUCKET      LGT RAIN  55  55 100 NW9       29.81F
PROVIDENCE     LGT RAIN  54  54 100 S3        29.79F FOG
HARTFORD       LGT RAIN  46  45  96 N6        29.85F
ALBANY         CLOUDY    42  32  67 NW14      29.95R
NEW YORK CITY  PTSUNNY   52  42  69 NW21      29.87F
$$

ANZ081-ANZ082-ANZ150-NHZ014-MEZ023>029-221900-
COASTAL MARINE OBSERVATIONS

STATION/POSITION TIME  TEMP    WIND        PRES    WAVE
                       AIR SEA DIR/SP/G            HT/PER
                 (UTC) (F)     (DEG/KT/KT) (MB)    (FT/S)
MOUNT DESERT ROC 1800   51     160/  8/  9 1011.5F
MATINICUS ROCK   1700   51     120/  7/  8 1011.4F
ISLE OF SHOALS   1700   52     170/ 14/ 14 1010.3F
JEFFREYS LEDGE   1736      50                N/A     3/ 6
CASHES LEDGE BUO 1750   49 51              1010.5F   3/ 7
GEORGES BANK BUO 1650   60 54              1014.2    7/ 7
$$

.............KEY..............
   WCI - WIND CHILL
   TC  - TEMPERATURE IN CELSIUS
   VSB - VISIBILITY IN MILES
   HX  - HEAT INDEX
   FAIR- INDICATES FEW OR NO CLOUDS BELOW 12,000 FT, WITH NO
         SIGNIFICANT WEATHER AND/OR OBSTRUCTIONS TO VISIBILITY.






USA.gov is the U.S. government's official web portal to all federal, state and local government web resources and services.